When you browse on this site, cookies collect data to enhance your experience and personalize the content and advertising you see.
Visit our Privacy Policy to learn more. By continuing to use the site, you agree to this use of cookies and data.
  • In Latvia
  • List of Countries
  • For 7 days
  • Water Temperature
  • Weather Map
  • Weather Widgets
  • user-avatar
    Login

    Hourly Weather Burlovo

    Today, 1 June, Monday

    Time Temperature Precipitation Wind Pressure Humidity
    00:00 +7°C° 0 mm 3 mps 755 mmHg 68%
    01:00 +5°C° 0 mm 3 mps 755 mmHg 71%
    02:00 +4°C° 0 mm 3 mps 755 mmHg 75%
    03:00 +4°C° 0 mm 3 mps 755 mmHg 74%
    04:00 +4°C° 0 mm 3 mps 754 mmHg 73%
    05:00 +4°C° 0 mm 3 mps 754 mmHg 72%
    06:00 +6°C° 0 mm 4 mps 754 mmHg 67%
    07:00 +7°C° 0 mm 4 mps 755 mmHg 61%
    08:00 +9°C° 0 mm 5 mps 755 mmHg 54%
    09:00 +10°C° 0 mm 5 mps 755 mmHg 51%
    10:00 +12°C° 0 mm 5 mps 754 mmHg 49%
    11:00 +13°C° 0 mm 5 mps 754 mmHg 46%
    12:00 +13°C° 0 mm 5 mps 754 mmHg 47%
    13:00 +13°C° 0 mm 4 mps 754 mmHg 49%
    14:00 +13°C° 0 mm 4 mps 754 mmHg 51%
    15:00 +13°C° 0 mm 4 mps 754 mmHg 51%
    16:00 +14°C° 0 mm 4 mps 753 mmHg 52%
    17:00 +14°C° 0 mm 4 mps 753 mmHg 52%
    18:00 +13°C° 0 mm 4 mps 753 mmHg 58%
    19:00 +11°C° 0 mm 3 mps 753 mmHg 63%
    20:00 +10°C° 0 mm 3 mps 753 mmHg 69%
    21:00 +10°C° 0 mm 3 mps 753 mmHg 70%
    22:00 +9°C° 0 mm 3 mps 753 mmHg 72%
    23:00 +8°C° 0 mm 3 mps 753 mmHg 73%

    Tomorrow, 2 June, Tuesday

    Time Temperature Precipitation Wind Pressure Humidity
    00:00 +7°C° 0 mm 3 mps 753 mmHg 74%
    01:00 +6°C° 0 mm 4 mps 753 mmHg 75%
    02:00 +6°C° 0 mm 4 mps 753 mmHg 75%
    03:00 +6°C° 0 mm 4 mps 753 mmHg 76%
    04:00 +6°C° 0 mm 4 mps 753 mmHg 76%
    05:00 +6°C° 0 mm 4 mps 752 mmHg 77%
    06:00 +7°C° 0 mm 4 mps 752 mmHg 70%
    07:00 +9°C° 0 mm 5 mps 752 mmHg 64%
    08:00 +12°C° 0 mm 5 mps 752 mmHg 57%
    09:00 +13°C° 0 mm 5 mps 752 mmHg 53%
    10:00 +14°C° 0 mm 6 mps 752 mmHg 50%
    11:00 +15°C° 0 mm 6 mps 751 mmHg 46%
    12:00 +16°C° 0 mm 6 mps 751 mmHg 44%
    13:00 +16°C° 0 mm 6 mps 751 mmHg 43%
    14:00 +17°C° 0 mm 6 mps 750 mmHg 41%
    15:00 +16°C° 0 mm 5 mps 750 mmHg 43%
    16:00 +16°C° 0 mm 5 mps 750 mmHg 44%
    17:00 +16°C° 0 mm 5 mps 750 mmHg 46%
    18:00 +15°C° 0 mm 4 mps 749 mmHg 52%
    19:00 +14°C° 0 mm 3 mps 749 mmHg 58%
    20:00 +12°C° 0 mm 3 mps 749 mmHg 64%
    21:00 +12°C° 0 mm 3 mps 749 mmHg 67%
    22:00 +11°C° 0 mm 3 mps 749 mmHg 69%
    23:00 +10°C° 0 mm 3 mps 749 mmHg 72%

    Day after tomorrow, 3 June, Wednesday

    Time Temperature Precipitation Wind Pressure Humidity
    00:00 +10°C° 0 mm 3 mps 749 mmHg 73%
    01:00 +10°C° 0 mm 3 mps 749 mmHg 74%
    02:00 +10°C° 0 mm 3 mps 749 mmHg 75%
    03:00 +9°C° 0.1 mm 3 mps 749 mmHg 79%
    04:00 +9°C° 0.1 mm 3 mps 748 mmHg 82%
    05:00 +9°C° 0.1 mm 3 mps 748 mmHg 85%
    06:00 +10°C° 0 mm 3 mps 748 mmHg 86%
    07:00 +10°C° 0 mm 3 mps 748 mmHg 87%
    08:00 +10°C° 0 mm 3 mps 748 mmHg 88%
    09:00 +11°C° 0 mm 3 mps 748 mmHg 85%
    10:00 +12°C° 0 mm 3 mps 748 mmHg 82%
    11:00 +13°C° 0 mm 3 mps 748 mmHg 79%
    12:00 +14°C° 0.1 mm 3 mps 748 mmHg 78%
    13:00 +14°C° 0.1 mm 3 mps 748 mmHg 76%
    14:00 +15°C° 0.1 mm 4 mps 747 mmHg 75%
    15:00 +15°C° 0.4 mm 4 mps 747 mmHg 77%
    16:00 +15°C° 0.4 mm 4 mps 747 mmHg 79%
    17:00 +17°C° 0.4 mm 4 mps 746 mmHg 81%
    18:00 +16°C° 0.4 mm 3 mps 746 mmHg 85%
    19:00 +14°C° 0.4 mm 3 mps 746 mmHg 89%
    20:00 +13°C° 0.4 mm 3 mps 746 mmHg 94%
    21:00 +12°C° 0 mm 3 mps 746 mmHg 95%
    22:00 +11°C° 0 mm 3 mps 746 mmHg 96%
    23:00 +11°C° 0 mm 3 mps 745 mmHg 97%

    4 June, Thursday

    Time Temperature Precipitation Wind Pressure Humidity
    00:00 +10°C° 0 mm 3 mps 745 mmHg 98%
    01:00 +10°C° 0 mm 2 mps 745 mmHg 98%
    02:00 +10°C° 0 mm 2 mps 745 mmHg 98%
    03:00 +12°C° 0.1 mm 2 mps 744 mmHg 98%
    04:00 +12°C° 0.1 mm 2 mps 744 mmHg 98%
    05:00 +13°C° 0.1 mm 2 mps 743 mmHg 98%
    06:00 +13°C° 0.5 mm 2 mps 743 mmHg 98%
    07:00 +13°C° 0.5 mm 2 mps 743 mmHg 98%
    08:00 +13°C° 0.5 mm 2 mps 742 mmHg 98%
    09:00 +13°C° 0.4 mm 2 mps 742 mmHg 97%
    10:00 +13°C° 0.4 mm 2 mps 742 mmHg 97%
    11:00 +13°C° 0.4 mm 2 mps 742 mmHg 96%
    12:00 +13°C° 0.1 mm 2 mps 742 mmHg 96%
    13:00 +13°C° 0.1 mm 1 mps 741 mmHg 96%
    14:00 +13°C° 0.1 mm 1 mps 741 mmHg 95%
    15:00 +14°C° 0 mm 1 mps 741 mmHg 93%
    16:00 +13°C° 0 mm 0 mps 741 mmHg 91%
    17:00 +14°C° 0 mm 0 mps 741 mmHg 89%
    18:00 +13°C° 0.1 mm 0 mps 741 mmHg 91%
    19:00 +13°C° 0.1 mm 0 mps 741 mmHg 93%
    20:00 +12°C° 0.1 mm 0 mps 741 mmHg 96%
    21:00 +13°C° 0.1 mm 1 mps 741 mmHg 96%
    22:00 +12°C° 0.1 mm 1 mps 741 mmHg 97%
    23:00 +12°C° 0.1 mm 1 mps 741 mmHg 97%

    5 June, Friday

    Time Temperature Precipitation Wind Pressure Humidity
    00:00 +11°C° 0 mm 1 mps 741 mmHg 97%
    01:00 +10°C° 0 mm 2 mps 741 mmHg 97%
    02:00 +9°C° 0 mm 2 mps 741 mmHg 97%
    03:00 +9°C° 0 mm 2 mps 742 mmHg 97%
    04:00 +9°C° 0 mm 2 mps 742 mmHg 97%
    05:00 +10°C° 0 mm 2 mps 742 mmHg 97%
    06:00 +11°C° 0 mm 3 mps 742 mmHg 91%
    07:00 +13°C° 0 mm 3 mps 743 mmHg 85%
    08:00 +14°C° 0 mm 3 mps 743 mmHg 80%
    09:00 +17°C° 0 mm 3 mps 743 mmHg 71%
    10:00 +19°C° 0 mm 3 mps 743 mmHg 62%
    11:00 +20°C° 0 mm 4 mps 743 mmHg 53%
    12:00 +21°C° 0 mm 4 mps 743 mmHg 51%
    13:00 +21°C° 0 mm 4 mps 743 mmHg 49%
    14:00 +22°C° 0 mm 3 mps 743 mmHg 47%
    15:00 +22°C° 0 mm 3 mps 743 mmHg 49%
    16:00 +21°C° 0 mm 3 mps 743 mmHg 51%
    17:00 +21°C° 0 mm 3 mps 743 mmHg 54%
    18:00 +20°C° 0 mm 2 mps 743 mmHg 62%
    19:00 +18°C° 0 mm 2 mps 743 mmHg 71%
    20:00 +16°C° 0 mm 2 mps 744 mmHg 79%
    21:00 +15°C° 0 mm 2 mps 744 mmHg 84%
    22:00 +14°C° 0 mm 2 mps 744 mmHg 89%
    23:00 +12°C° 0 mm 2 mps 744 mmHg 94%

    6 June, Saturday

    Time Temperature Precipitation Wind Pressure Humidity
    00:00 +12°C° 0 mm 2 mps 744 mmHg 95%
    01:00 +12°C° 0 mm 2 mps 744 mmHg 95%
    02:00 +10°C° 0 mm 2 mps 744 mmHg 96%
    03:00 +12°C° 0 mm 2 mps 745 mmHg 94%
    04:00 +12°C° 0 mm 2 mps 745 mmHg 92%
    05:00 +13°C° 0 mm 2 mps 745 mmHg 90%
    06:00 +14°C° 0 mm 3 mps 745 mmHg 81%
    07:00 +17°C° 0 mm 3 mps 744 mmHg 72%
    08:00 +20°C° 0 mm 3 mps 744 mmHg 63%
    09:00 +21°C° 0 mm 4 mps 744 mmHg 58%
    10:00 +22°C° 0 mm 4 mps 745 mmHg 54%
    11:00 +25°C° 0 mm 4 mps 745 mmHg 50%
    12:00 +25°C° 0.2 mm 4 mps 744 mmHg 54%
    13:00 +25°C° 0.2 mm 4 mps 744 mmHg 57%
    14:00 +25°C° 0.2 mm 4 mps 744 mmHg 61%
    15:00 +23°C° 0.7 mm 4 mps 744 mmHg 68%
    16:00 +22°C° 0.7 mm 4 mps 744 mmHg 75%
    17:00 +22°C° 0.7 mm 3 mps 744 mmHg 82%
    18:00 +21°C° 0.6 mm 3 mps 744 mmHg 85%
    19:00 +20°C° 0.6 mm 3 mps 744 mmHg 87%
    20:00 +19°C° 0.6 mm 3 mps 744 mmHg 90%
    21:00 +18°C° 0.3 mm 3 mps 744 mmHg 91%
    22:00 +17°C° 0.3 mm 2 mps 744 mmHg 93%
    23:00 +17°C° 0.3 mm 2 mps 744 mmHg 94%
    Show more